GFSGL_500_temp_279.txt.gz
Temp
-13 -12 -13 -12 -13 -13 -12 -12 -12 -11 -12 -12 -12 -12 -12 -13 -13 -14 -15 -15 -15 -16 -16 -17 -18 -18 -18 -19 -19 -19 -19 -19 -19 -19 -19 -19 -18 -19 -19 -19 -18 -18 -18
-13 -12 -12 -13 -13 -13 -13 -12 -12 -12 -12 -12 -12 -12 -13 -13 -13 -14 -15 -15 -15 -16 -16 -17 -18 -18 -18 -18 -19 -19 -19 -19 -19 -19 -19 -19 -19 -19 -19 -19 -19 -19 -19
-13 -12 -13 -13 -13 -13 -13 -12 -12 -12 -12 -12 -12 -13 -13 -13 -14 -14 -15 -15 -16 -16 -17 -18 -18 -18 -19 -19 -19 -19 -19 -19 -19 -19 -19 -19 -19 -19 -19 -19 -19 -19 -19
-13 -13 -13 -13 -13 -13 -13 -13 -12 -12 -12 -12 -13 -13 -13 -13 -14 -15 -15 -16 -16 -16 -17 -18 -18 -18 -19 -19 -19 -19 -19 -19 -19 -20 -19 -19 -19 -19 -19 -19 -20 -19 -20
-13 -13 -13 -13 -13 -13 -13 -13 -13 -12 -12 -13 -13 -13 -13 -14 -14 -15 -15 -16 -16 -17 -17 -18 -19 -19 -19 -20 -20 -19 -19 -20 -20 -20 -20 -20 -20 -20 -20 -20 -20 -20 -21
-13 -13 -13 -13 -13 -13 -13 -13 -13 -12 -13 -13 -12 -13 -13 -14 -14 -15 -15 -16 -17 -17 -18 -19 -19 -20 -20 -20 -20 -20 -20 -20 -19 -20 -20 -20 -20 -20 -20 -20 -21 -21 -22
-13 -13 -13 -13 -13 -13 -13 -13 -13 -13 -13 -13 -13 -13 -14 -14 -14 -15 -15 -16 -17 -18 -19 -19 -20 -20 -20 -20 -20 -20 -20 -20 -20 -21 -21 -21 -21 -21 -21 -22 -22 -22 -22
-12 -12 -13 -13 -13 -13 -12 -14 -14 -13 -13 -13 -13 -13 -14 -14 -14 -15 -15 -16 -17 -18 -19 -20 -20 -20 -20 -20 -21 -21 -21 -21 -21 -21 -21 -22 -22 -22 -22 -23 -23 -23 -22
-12 -13 -13 -13 -13 -13 -13 -13 -13 -13 -13 -13 -13 -14 -14 -14 -15 -15 -16 -17 -18 -18 -19 -19 -20 -20 -20 -20 -21 -21 -21 -21 -22 -22 -22 -23 -23 -23 -23 -24 -24 -23 -23
-12 -13 -13 -14 -13 -13 -12 -14 -13 -13 -13 -13 -13 -14 -14 -15 -15 -16 -16 -17 -18 -18 -19 -19 -20 -20 -20 -21 -21 -21 -22 -22 -23 -23 -23 -24 -24 -24 -25 -24 -24 -24 -23
-13 -13 -13 -13 -13 -13 -13 -13 -13 -13 -13 -13 -14 -14 -14 -15 -16 -16 -17 -18 -19 -20 -20 -20 -20 -20 -21 -21 -21 -22 -22 -23 -24 -24 -24 -25 -25 -25 -25 -24 -24 -24 -24
-14 -13 -13 -13 -14 -13 -13 -13 -13 -13 -13 -13 -14 -14 -14 -16 -16 -16 -17 -18 -19 -20 -20 -20 -20 -21 -21 -22 -22 -23 -23 -24 -24 -25 -25 -25 -25 -25 -25 -25 -24 -24 -23
-13 -14 -14 -13 -13 -13 -13 -13 -14 -13 -13 -14 -14 -14 -15 -16 -16 -17 -18 -19 -20 -20 -20 -20 -20 -21 -22 -22 -23 -23 -24 -24 -24 -25 -25 -25 -25 -25 -25 -25 -24 -23 -23
-14 -14 -14 -13 -13 -13 -14 -14 -14 -13 -13 -14 -14 -14 -15 -16 -16 -17 -18 -19 -19 -20 -20 -20 -21 -21 -22 -22 -23 -23 -23 -23 -24 -24 -24 -24 -25 -25 -25 -24 -24 -23 -23
-14 -14 -14 -13 -13 -13 -14 -14 -14 -13 -14 -14 -14 -15 -15 -15 -17 -17 -18 -19 -20 -20 -20 -21 -21 -22 -23 -23 -23 -23 -23 -23 -24 -24 -24 -24 -25 -25 -24 -24 -23 -23 -23
-14 -14 -13 -14 -13 -13 -14 -14 -14 -14 -14 -14 -14 -15 -15 -16 -17 -18 -19 -19 -20 -20 -20 -21 -21 -22 -22 -23 -23 -23 -23 -23 -24 -24 -24 -24 -24 -24 -24 -23 -23 -23 -23
-14 -14 -14 -14 -13 -14 -14 -14 -14 -14 -14 -14 -15 -15 -16 -17 -18 -19 -19 -20 -20 -20 -20 -21 -22 -22 -23 -23 -23 -23 -23 -23 -24 -24 -24 -24 -24 -24 -23 -23 -23 -23 -22
-15 -14 -14 -13 -14 -14 -15 -14 -14 -14 -14 -15 -15 -16 -16 -17 -18 -19 -20 -20 -20 -20 -21 -21 -22 -22 -23 -23 -23 -23 -23 -23 -23 -23 -23 -23 -23 -23 -23 -22 -22 -22 -22
-14 -14 -14 -14 -14 -14 -16 -15 -14 -15 -15 -15 -15 -16 -17 -18 -18 -19 -20 -20 -20 -20 -21 -22 -22 -22 -23 -23 -23 -22 -23 -23 -23 -23 -23 -23 -23 -23 -22 -22 -22 -22 -21
-14 -14 -14 -13 -13 -15 -14 -14 -15 -15 -15 -15 -16 -17 -18 -18 -19 -20 -20 -20 -20 -20 -21 -22 -22 -22 -22 -22 -22 -22 -22 -22 -22 -22 -22 -22 -23 -22 -22 -22 -22 -22 -21
-13 -13 -14 -14 -14 -14 -14 -15 -14 -14 -15 -16 -17 -17 -17 -18 -19 -19 -20 -20 -20 -21 -22 -22 -22 -22 -22 -22 -22 -22 -22 -22 -22 -22 -22 -22 -22 -22 -21 -21 -21 -21 -21
-14 -14 -13 -14 -15 -15 -14 -14 -14 -15 -15 -16 -17 -17 -18 -19 -19 -20 -20 -20 -21 -21 -22 -22 -22 -22 -22 -22 -22 -22 -22 -22 -22 -22 -21 -21 -21 -21 -21 -21 -21 -21 -21
-14 -14 -14 -15 -15 -15 -15 -14 -15 -15 -16 -16 -16 -18 -19 -19 -20 -20 -20 -21 -21 -22 -22 -22 -22 -22 -22 -22 -22 -22 -22 -21 -21 -21 -21 -21 -21 -21 -21 -21 -21 -21 -21
-14 -14 -15 -16 -16 -15 -15 -15 -15 -16 -17 -16 -17 -18 -19 -19 -20 -20 -20 -21 -21 -21 -22 -22 -22 -22 -22 -22 -22 -21 -21 -21 -21 -21 -21 -21 -21 -21 -21 -21 -21 -21 -21
-13 -15 -16 -16 -16 -16 -15 -15 -16 -16 -16 -17 -18 -18 -19 -20 -20 -20 -21 -21 -21 -21 -22 -22 -22 -22 -22 -22 -21 -21 -21 -21 -21 -21 -21 -21 -21 -21 -21 -20 -20 -20 -21
-15 -15 -17 -17 -17 -16 -16 -16 -16 -16 -17 -18 -18 -19 -19 -20 -20 -21 -21 -21 -21 -22 -22 -22 -22 -22 -21 -21 -21 -21 -21 -21 -20 -20 -21 -21 -20 -20 -20 -20 -20 -20 -20

GFSGL_500_temp_282.txt.gz
Temp
-12 -12 -12 -12 -12 -12 -12 -12 -12 -12 -12 -11 -11 -11 -11 -12 -12 -13 -13 -14 -14 -15 -15 -15 -16 -17 -18 -18 -19 -19 -19 -19 -20 -20 -20 -19 -19 -19 -19 -19 -19 -19 -19
-13 -12 -12 -12 -13 -12 -12 -12 -12 -13 -12 -12 -12 -12 -12 -12 -13 -13 -14 -14 -14 -15 -15 -16 -16 -17 -18 -19 -19 -19 -19 -19 -20 -19 -20 -19 -19 -19 -19 -19 -19 -19 -19
-13 -13 -13 -13 -13 -13 -13 -12 -12 -12 -13 -13 -12 -12 -12 -12 -13 -13 -14 -14 -14 -15 -15 -16 -17 -18 -19 -19 -19 -19 -19 -19 -19 -19 -19 -19 -19 -19 -19 -19 -19 -19 -19
-13 -12 -12 -13 -13 -13 -12 -12 -12 -12 -12 -13 -12 -12 -12 -13 -13 -14 -14 -14 -15 -15 -16 -16 -17 -19 -19 -19 -19 -19 -19 -20 -20 -20 -20 -20 -20 -20 -20 -20 -20 -20 -20
-13 -12 -12 -13 -13 -13 -12 -12 -13 -13 -13 -13 -13 -13 -13 -13 -14 -14 -14 -14 -15 -16 -17 -17 -18 -19 -19 -19 -19 -20 -20 -20 -20 -20 -20 -20 -20 -20 -20 -20 -20 -20 -20
-12 -12 -12 -13 -13 -13 -12 -13 -13 -13 -13 -14 -13 -13 -13 -13 -14 -14 -14 -15 -15 -16 -17 -18 -19 -19 -20 -20 -20 -20 -20 -20 -20 -20 -20 -21 -21 -21 -21 -21 -21 -21 -21
-12 -13 -12 -13 -13 -12 -13 -13 -13 -13 -13 -14 -13 -13 -13 -14 -14 -14 -14 -15 -16 -16 -17 -18 -19 -20 -20 -20 -20 -20 -21 -21 -21 -21 -21 -22 -22 -22 -22 -22 -23 -23 -23
-12 -13 -12 -12 -13 -13 -13 -13 -13 -13 -13 -14 -13 -13 -13 -14 -14 -14 -15 -15 -16 -17 -17 -18 -19 -20 -20 -20 -20 -21 -21 -21 -21 -22 -22 -22 -23 -23 -23 -23 -24 -24 -24
-12 -13 -13 -12 -13 -12 -13 -12 -13 -13 -14 -14 -13 -13 -14 -14 -14 -14 -15 -16 -16 -17 -18 -19 -20 -20 -20 -20 -21 -21 -21 -22 -22 -23 -23 -24 -24 -24 -24 -24 -25 -25 -25
-13 -14 -13 -12 -12 -13 -13 -13 -13 -13 -13 -14 -13 -13 -14 -14 -14 -15 -15 -16 -17 -17 -19 -19 -20 -20 -21 -21 -21 -22 -22 -22 -23 -23 -24 -25 -25 -25 -26 -26 -25 -25 -25
-13 -13 -13 -13 -12 -12 -12 -13 -13 -13 -13 -14 -14 -14 -14 -14 -15 -15 -16 -17 -17 -18 -19 -20 -20 -21 -21 -22 -22 -22 -23 -23 -23 -24 -24 -25 -26 -26 -25 -25 -25 -25 -25
-13 -13 -13 -13 -13 -14 -13 -13 -13 -13 -13 -14 -14 -14 -14 -14 -15 -16 -16 -17 -18 -19 -20 -20 -21 -21 -21 -22 -22 -23 -23 -23 -24 -24 -24 -25 -25 -25 -25 -25 -25 -25 -24
-14 -14 -13 -13 -13 -13 -14 -12 -13 -13 -14 -14 -14 -14 -14 -15 -15 -16 -16 -17 -18 -19 -20 -20 -21 -21 -22 -22 -22 -23 -23 -24 -24 -24 -24 -24 -25 -25 -25 -25 -25 -25 -23
-14 -14 -14 -13 -13 -12 -14 -13 -13 -13 -14 -13 -14 -14 -14 -15 -16 -16 -17 -18 -19 -19 -20 -20 -21 -22 -22 -22 -23 -23 -24 -24 -24 -24 -24 -24 -25 -25 -25 -25 -25 -24 -23
-14 -14 -14 -14 -13 -14 -13 -14 -13 -14 -14 -14 -14 -14 -14 -15 -15 -16 -17 -18 -19 -19 -20 -21 -21 -22 -22 -22 -23 -23 -23 -23 -23 -24 -24 -24 -24 -25 -24 -24 -24 -23 -23
-14 -14 -14 -14 -14 -14 -14 -14 -13 -14 -13 -14 -14 -14 -14 -15 -15 -16 -18 -18 -19 -20 -20 -21 -21 -22 -22 -23 -23 -22 -23 -23 -23 -23 -23 -24 -24 -24 -24 -23 -23 -23 -22
-15 -15 -14 -14 -14 -14 -14 -14 -14 -14 -14 -14 -14 -14 -15 -15 -16 -17 -18 -19 -19 -20 -20 -21 -21 -22 -22 -22 -22 -23 -23 -23 -23 -23 -23 -23 -23 -23 -23 -23 -23 -22 -22
-15 -14 -14 -15 -14 -14 -14 -13 -14 -15 -16 -14 -14 -14 -15 -15 -16 -18 -19 -19 -20 -20 -21 -21 -21 -22 -22 -22 -22 -22 -22 -22 -23 -23 -23 -23 -23 -23 -22 -22 -22 -22 -22
-15 -15 -15 -14 -14 -14 -14 -14 -15 -15 -15 -14 -14 -15 -15 -15 -17 -18 -19 -19 -20 -20 -21 -21 -21 -22 -22 -22 -22 -22 -22 -22 -22 -22 -22 -22 -22 -22 -22 -22 -22 -21 -21
-15 -15 -15 -14 -14 -14 -14 -15 -15 -15 -14 -14 -15 -15 -15 -16 -18 -18 -19 -20 -20 -20 -20 -21 -21 -22 -22 -22 -22 -22 -22 -22 -22 -22 -22 -22 -22 -22 -22 -22 -22 -22 -22
-15 -15 -15 -14 -14 -14 -14 -15 -15 -15 -14 -15 -15 -15 -16 -17 -18 -19 -20 -20 -20 -20 -21 -21 -22 -22 -22 -22 -22 -22 -22 -22 -22 -21 -21 -21 -21 -21 -21 -21 -21 -21 -21
-15 -16 -15 -14 -14 -14 -16 -15 -15 -15 -15 -15 -15 -16 -16 -18 -19 -19 -20 -20 -20 -21 -21 -22 -22 -22 -22 -22 -22 -22 -22 -22 -22 -21 -21 -21 -21 -21 -21 -21 -21 -21 -21
-17 -15 -14 -14 -14 -16 -15 -15 -15 -15 -15 -15 -15 -16 -17 -18 -19 -19 -20 -20 -21 -21 -21 -22 -22 -22 -22 -22 -22 -22 -22 -21 -21 -21 -21 -21 -21 -21 -21 -21 -21 -21 -21
-14 -14 -14 -14 -14 -15 -15 -15 -15 -15 -15 -15 -16 -17 -18 -19 -19 -19 -20 -20 -21 -21 -21 -22 -22 -22 -22 -22 -21 -21 -21 -21 -21 -21 -21 -21 -21 -20 -20 -21 -20 -20 -20
-14 -14 -14 -14 -16 -15 -15 -15 -15 -15 -15 -15 -17 -18 -18 -19 -19 -20 -20 -20 -21 -21 -21 -22 -22 -22 -22 -21 -21 -21 -21 -21 -21 -21 -20 -20 -20 -20 -20 -20 -20 -20 -19
-15 -14 -14 -16 -16 -15 -15 -16 -15 -15 -15 -16 -17 -19 -19 -19 -20 -20 -20 -21 -21 -21 -22 -22 -22 -21 -21 -21 -21 -21 -20 -20 -20 -20 -20 -20 -20 -19 -19 -19 -19 -19 -19

GFSGL_500_temp_285.txt.gz
Temp
-10 -11 -12 -12 -12 -13 -14 -12 -12 -13 -12 -12 -12 -12 -12 -12 -12 -12 -12 -12 -13 -13 -14 -14 -15 -15 -16 -16 -18 -19 -19 -20 -20 -20 -20 -20 -20 -20 -20 -20 -20 -19 -19
-11 -11 -12 -12 -12 -13 -13 -13 -13 -13 -12 -12 -12 -12 -12 -12 -12 -12 -12 -12 -13 -14 -14 -14 -15 -16 -16 -17 -18 -19 -20 -20 -20 -20 -20 -20 -20 -20 -20 -20 -20 -20 -20
-12 -12 -12 -12 -12 -13 -13 -13 -13 -13 -12 -12 -12 -13 -12 -12 -12 -12 -12 -13 -13 -14 -14 -15 -15 -16 -17 -17 -19 -19 -20 -20 -20 -20 -20 -20 -20 -20 -20 -20 -20 -20 -20
-12 -12 -12 -13 -12 -13 -13 -13 -13 -13 -13 -12 -12 -12 -13 -13 -12 -13 -13 -13 -14 -14 -15 -15 -16 -17 -17 -18 -19 -20 -20 -20 -20 -20 -20 -20 -20 -20 -20 -20 -20 -20 -20
-12 -13 -13 -12 -12 -12 -13 -13 -13 -13 -13 -13 -12 -12 -13 -12 -13 -13 -13 -13 -14 -14 -15 -15 -16 -17 -18 -19 -20 -20 -20 -20 -21 -21 -21 -21 -21 -21 -21 -21 -21 -21 -21
-13 -12 -12 -12 -12 -13 -13 -13 -13 -13 -13 -13 -13 -13 -13 -13 -13 -13 -13 -14 -14 -15 -15 -16 -17 -18 -19 -20 -20 -20 -21 -21 -21 -21 -22 -22 -22 -22 -22 -22 -22 -22 -22
-13 -13 -13 -13 -13 -13 -13 -13 -13 -13 -13 -13 -13 -14 -14 -14 -13 -14 -14 -14 -14 -15 -16 -17 -17 -18 -20 -20 -21 -21 -21 -21 -22 -22 -22 -23 -23 -23 -23 -24 -24 -24 -24
-13 -13 -13 -13 -13 -13 -13 -12 -13 -13 -13 -13 -13 -13 -13 -13 -14 -14 -14 -14 -15 -15 -16 -17 -18 -19 -20 -21 -21 -21 -21 -22 -22 -23 -23 -23 -23 -23 -24 -25 -25 -25 -25
-13 -13 -13 -14 -13 -13 -13 -12 -13 -13 -13 -13 -13 -13 -14 -14 -14 -14 -14 -14 -15 -16 -17 -18 -19 -20 -21 -21 -21 -22 -22 -23 -23 -23 -23 -24 -24 -24 -26 -26 -27 -27 -27
-14 -13 -14 -14 -14 -13 -13 -13 -13 -13 -13 -13 -14 -14 -14 -14 -14 -14 -14 -14 -15 -16 -17 -18 -19 -20 -21 -21 -21 -22 -23 -23 -23 -23 -24 -24 -24 -25 -25 -26 -26 -26 -26
-14 -14 -14 -14 -14 -14 -13 -13 -13 -13 -13 -13 -13 -14 -14 -14 -14 -14 -15 -15 -16 -17 -18 -19 -20 -21 -21 -21 -22 -22 -23 -23 -23 -23 -24 -24 -25 -25 -25 -25 -25 -25 -26
-14 -14 -14 -14 -14 -14 -13 -13 -13 -13 -13 -14 -14 -14 -14 -14 -14 -14 -15 -15 -16 -18 -19 -19 -21 -21 -21 -21 -22 -23 -22 -23 -23 -23 -24 -24 -25 -25 -25 -25 -25 -26 -25
-14 -14 -14 -14 -14 -14 -15 -14 -13 -13 -13 -13 -14 -14 -15 -14 -14 -15 -15 -16 -17 -18 -19 -20 -21 -21 -21 -22 -22 -22 -22 -23 -23 -23 -24 -24 -25 -25 -25 -25 -25 -25 -24
-15 -14 -15 -15 -14 -14 -14 -14 -13 -13 -14 -14 -14 -15 -14 -14 -15 -15 -15 -16 -18 -19 -19 -20 -21 -21 -21 -21 -22 -22 -22 -22 -23 -23 -23 -24 -24 -24 -24 -24 -24 -24 -24
-15 -15 -15 -15 -15 -14 -14 -15 -14 -14 -14 -14 -14 -15 -14 -15 -15 -15 -16 -17 -18 -19 -20 -21 -21 -21 -21 -22 -22 -22 -22 -22 -22 -23 -23 -23 -23 -24 -24 -23 -23 -23 -23
-15 -15 -15 -15 -15 -14 -14 -14 -14 -14 -14 -14 -15 -14 -15 -15 -15 -15 -17 -18 -18 -19 -20 -21 -21 -21 -21 -22 -22 -22 -22 -22 -22 -22 -23 -23 -23 -23 -23 -23 -23 -23 -23
-15 -15 -15 -15 -15 -15 -15 -14 -14 -14 -14 -15 -15 -15 -15 -15 -15 -16 -17 -18 -19 -20 -21 -21 -20 -21 -21 -22 -22 -22 -22 -22 -22 -22 -22 -22 -23 -23 -23 -23 -23 -23 -22
-15 -15 -15 -15 -15 -15 -15 -14 -14 -14 -15 -15 -15 -15 -15 -15 -16 -17 -18 -19 -19 -20 -21 -21 -21 -21 -21 -22 -21 -22 -22 -22 -22 -22 -22 -22 -22 -23 -23 -22 -22 -22 -22
-15 -16 -15 -16 -15 -15 -16 -15 -14 -14 -15 -15 -15 -15 -15 -16 -16 -17 -18 -19 -19 -20 -21 -20 -21 -21 -21 -21 -21 -21 -21 -22 -22 -22 -22 -22 -22 -22 -22 -22 -22 -22 -22
-15 -16 -16 -16 -15 -15 -15 -15 -14 -15 -15 -15 -15 -15 -15 -16 -17 -18 -19 -19 -20 -20 -20 -20 -21 -21 -21 -21 -21 -21 -21 -21 -21 -21 -21 -21 -21 -21 -22 -22 -22 -22 -22
-16 -16 -16 -16 -15 -15 -15 -15 -15 -16 -16 -15 -15 -16 -17 -16 -17 -18 -19 -19 -20 -20 -20 -20 -21 -21 -21 -21 -21 -21 -21 -21 -21 -21 -21 -21 -21 -21 -21 -21 -21 -22 -22
-17 -16 -16 -16 -15 -15 -15 -15 -16 -16 -16 -15 -16 -16 -16 -17 -18 -18 -19 -20 -20 -20 -20 -20 -21 -21 -21 -21 -21 -21 -21 -21 -21 -21 -21 -21 -21 -21 -21 -21 -21 -21 -21
-16 -16 -16 -16 -15 -15 -15 -15 -17 -16 -16 -16 -16 -16 -17 -17 -18 -19 -19 -20 -20 -20 -20 -20 -21 -21 -21 -21 -21 -21 -21 -21 -21 -21 -21 -21 -21 -21 -21 -21 -21 -21 -21
-16 -16 -16 -16 -15 -15 -15 -16 -16 -16 -16 -16 -16 -16 -17 -18 -19 -19 -20 -20 -19 -20 -20 -21 -21 -21 -21 -21 -21 -21 -21 -21 -21 -21 -20 -20 -20 -20 -20 -20 -20 -20 -20
-16 -15 -15 -15 -15 -15 -15 -15 -16 -16 -16 -16 -16 -16 -17 -19 -19 -19 -19 -19 -20 -20 -20 -21 -21 -21 -21 -21 -21 -20 -20 -20 -20 -20 -20 -20 -20 -20 -19 -19 -19 -19 -19
-15 -16 -15 -15 -15 -15 -16 -16 -16 -16 -16 -16 -16 -17 -18 -19 -19 -19 -19 -19 -20 -20 -21 -21 -21 -20 -20 -20 -20 -20 -20 -20 -20 -20 -20 -19 -19 -19 -19 -19 -19 -19 -19

GFSGL_500_temp_288.txt.gz
Temp
-10 -11 -10 -11 -11 -12 -12 -13 -13 -13 -13 -13 -13 -14 -14 -13 -13 -13 -13 -12 -12 -12 -12 -13 -13 -14 -14 -14 -15 -16 -16 -17 -18 -20 -20 -20 -20 -20 -20 -20 -20 -20 -20
-11 -11 -11 -12 -13 -13 -13 -13 -13 -14 -13 -13 -13 -14 -14 -13 -14 -13 -13 -13 -13 -13 -13 -13 -13 -14 -14 -15 -16 -16 -17 -18 -19 -20 -20 -20 -20 -20 -20 -20 -21 -21 -21
-11 -12 -12 -12 -13 -13 -13 -13 -12 -13 -13 -13 -13 -14 -13 -14 -13 -13 -13 -13 -13 -13 -13 -13 -14 -14 -15 -16 -16 -17 -18 -19 -20 -20 -20 -20 -21 -21 -21 -21 -21 -21 -21
-12 -12 -12 -13 -13 -13 -13 -13 -13 -13 -13 -13 -13 -13 -13 -14 -14 -14 -14 -13 -13 -13 -13 -14 -14 -15 -16 -17 -17 -18 -19 -20 -20 -21 -21 -21 -21 -21 -22 -22 -22 -22 -22
-13 -13 -13 -13 -13 -13 -13 -13 -13 -13 -13 -13 -12 -13 -13 -13 -14 -14 -13 -13 -13 -13 -14 -14 -15 -15 -16 -17 -18 -19 -19 -20 -21 -21 -22 -22 -22 -23 -23 -23 -23 -23 -23
-13 -13 -13 -13 -13 -13 -13 -13 -13 -13 -13 -13 -13 -13 -13 -13 -13 -13 -13 -13 -14 -14 -14 -14 -15 -15 -17 -17 -18 -19 -20 -21 -21 -22 -23 -23 -23 -24 -24 -24 -23 -23 -24
-13 -13 -13 -13 -13 -13 -14 -14 -13 -13 -13 -13 -13 -13 -13 -14 -14 -13 -14 -14 -14 -14 -14 -15 -15 -16 -17 -18 -19 -20 -20 -21 -22 -23 -23 -23 -23 -24 -24 -24 -24 -25 -25
-14 -14 -14 -14 -13 -13 -14 -14 -13 -13 -13 -13 -13 -13 -13 -14 -14 -14 -14 -14 -14 -14 -15 -15 -15 -17 -17 -18 -20 -20 -21 -22 -22 -23 -23 -24 -24 -24 -24 -25 -25 -26 -27
-14 -14 -14 -14 -14 -14 -14 -14 -14 -13 -13 -13 -13 -13 -13 -13 -14 -14 -14 -14 -14 -15 -15 -15 -16 -17 -18 -19 -20 -20 -21 -22 -23 -23 -23 -24 -24 -25 -25 -25 -26 -26 -26
-15 -15 -15 -14 -14 -14 -14 -14 -15 -13 -13 -14 -14 -14 -13 -13 -14 -14 -14 -15 -15 -15 -15 -16 -17 -18 -19 -19 -20 -21 -22 -23 -23 -23 -23 -23 -24 -25 -25 -25 -25 -26 -26
-15 -15 -15 -15 -14 -14 -14 -14 -15 -14 -13 -13 -14 -13 -13 -13 -14 -14 -14 -15 -15 -15 -15 -16 -18 -18 -19 -20 -20 -21 -22 -22 -22 -22 -23 -23 -24 -24 -25 -25 -26 -26 -26
-15 -15 -15 -15 -15 -15 -15 -14 -14 -15 -15 -14 -14 -14 -13 -14 -14 -14 -15 -15 -15 -15 -16 -17 -18 -19 -19 -20 -20 -22 -22 -22 -22 -22 -22 -23 -23 -24 -24 -25 -25 -25 -25
-15 -15 -15 -15 -15 -15 -15 -15 -14 -15 -14 -14 -14 -14 -14 -14 -14 -15 -16 -15 -15 -15 -17 -18 -19 -19 -20 -20 -21 -22 -22 -22 -22 -22 -22 -22 -23 -23 -23 -24 -24 -24 -24
-15 -15 -15 -15 -15 -15 -15 -15 -15 -15 -15 -14 -14 -14 -14 -15 -14 -16 -15 -15 -15 -16 -18 -18 -19 -20 -20 -20 -21 -22 -22 -22 -22 -22 -22 -22 -22 -23 -23 -23 -23 -23 -23
-16 -16 -15 -16 -16 -15 -15 -15 -15 -14 -15 -14 -14 -14 -15 -15 -16 -15 -15 -15 -16 -17 -18 -19 -19 -20 -20 -21 -22 -22 -22 -22 -21 -21 -22 -22 -22 -22 -22 -23 -23 -23 -23
-16 -16 -16 -17 -16 -15 -15 -15 -15 -15 -15 -14 -14 -15 -15 -16 -16 -15 -15 -16 -17 -17 -18 -19 -20 -20 -21 -21 -21 -22 -22 -21 -21 -21 -22 -22 -22 -22 -22 -22 -22 -22 -22
-17 -17 -18 -17 -16 -16 -15 -15 -15 -15 -16 -15 -15 -15 -15 -16 -16 -15 -16 -16 -17 -18 -18 -19 -20 -20 -21 -21 -21 -22 -21 -21 -21 -21 -21 -21 -22 -22 -22 -22 -22 -22 -22
-17 -18 -18 -17 -16 -16 -16 -16 -15 -15 -16 -15 -15 -15 -15 -16 -16 -16 -16 -16 -18 -19 -19 -20 -20 -20 -21 -21 -21 -21 -21 -21 -21 -21 -21 -21 -21 -21 -21 -21 -21 -21 -21
-17 -18 -17 -17 -17 -16 -16 -16 -15 -15 -15 -15 -15 -16 -16 -16 -16 -16 -16 -17 -18 -19 -20 -20 -20 -20 -21 -21 -21 -21 -21 -21 -21 -21 -21 -21 -21 -21 -21 -21 -21 -21 -21
-18 -18 -17 -17 -17 -16 -16 -16 -16 -16 -15 -15 -16 -16 -16 -16 -16 -16 -17 -18 -18 -19 -20 -20 -20 -20 -21 -21 -21 -21 -21 -21 -21 -21 -20 -21 -21 -21 -21 -21 -21 -21 -21
-18 -18 -17 -17 -17 -16 -16 -16 -15 -15 -16 -15 -16 -16 -16 -16 -17 -17 -17 -18 -19 -20 -20 -20 -20 -20 -21 -21 -21 -21 -21 -21 -20 -20 -20 -20 -21 -21 -21 -21 -21 -21 -21
-18 -18 -18 -17 -17 -16 -16 -16 -16 -15 -16 -16 -16 -16 -16 -16 -17 -17 -18 -19 -19 -19 -20 -19 -20 -21 -20 -21 -21 -21 -21 -20 -20 -20 -20 -20 -20 -21 -21 -21 -21 -21 -21
-18 -18 -17 -17 -17 -16 -16 -15 -16 -16 -16 -16 -17 -16 -16 -17 -17 -18 -18 -19 -19 -20 -19 -20 -20 -20 -20 -20 -20 -20 -20 -20 -20 -20 -20 -20 -20 -20 -20 -20 -20 -20 -20
-18 -18 -17 -17 -17 -16 -15 -16 -15 -16 -15 -17 -17 -16 -17 -17 -17 -18 -19 -19 -19 -19 -19 -20 -20 -20 -20 -20 -20 -20 -20 -20 -20 -20 -20 -19 -19 -19 -19 -19 -19 -19 -19
-18 -18 -17 -17 -16 -16 -16 -15 -15 -15 -16 -17 -16 -17 -17 -17 -18 -19 -19 -19 -19 -19 -20 -20 -20 -20 -20 -20 -20 -20 -20 -20 -20 -19 -19 -19 -19 -19 -19 -19 -19 -19 -19
-18 -17 -17 -16 -16 -17 -16 -16 -15 -16 -18 -16 -17 -17 -17 -18 -18 -19 -19 -19 -19 -20 -20 -20 -20 -20 -20 -20 -20 -20 -20 -20 -20 -20 -19 -20 -19 -19 -19 -19 -19 -19 -19

GFSGL_500_temp_291.txt.gz
Temp
-11 -11 -11 -11 -11 -11 -12 -12 -13 -13 -13 -12 -13 -13 -13 -12 -12 -12 -12 -13 -13 -13 -14 -13 -13 -14 -13 -14 -14 -15 -16 -16 -17 -19 -19 -20 -20 -21 -21 -21 -21 -21 -21
-12 -12 -11 -11 -11 -12 -12 -12 -12 -13 -12 -12 -13 -12 -12 -12 -13 -13 -12 -13 -13 -13 -13 -13 -14 -14 -14 -14 -15 -15 -16 -17 -18 -19 -20 -21 -21 -21 -21 -21 -21 -21 -21
-12 -12 -12 -12 -11 -11 -12 -12 -13 -13 -13 -13 -13 -12 -13 -12 -12 -13 -13 -13 -13 -13 -14 -14 -14 -14 -14 -15 -15 -16 -17 -18 -19 -20 -20 -21 -21 -22 -22 -22 -22 -22 -22
-12 -12 -12 -12 -12 -12 -12 -12 -13 -13 -13 -13 -13 -13 -13 -13 -13 -13 -13 -13 -13 -14 -14 -14 -14 -14 -15 -15 -16 -17 -18 -19 -19 -20 -21 -22 -22 -22 -22 -22 -23 -23 -23
-13 -13 -13 -13 -13 -13 -13 -13 -13 -13 -13 -13 -13 -13 -13 -13 -14 -13 -13 -13 -14 -14 -14 -15 -15 -15 -15 -15 -16 -17 -18 -19 -20 -21 -21 -22 -22 -23 -23 -23 -23 -24 -23
-13 -13 -13 -13 -13 -13 -13 -13 -13 -13 -13 -13 -13 -13 -13 -13 -13 -13 -13 -14 -14 -14 -14 -14 -15 -15 -15 -16 -17 -18 -18 -19 -20 -21 -22 -22 -23 -23 -24 -24 -24 -24 -24
-13 -13 -13 -13 -13 -13 -13 -14 -13 -13 -13 -13 -13 -13 -13 -13 -14 -13 -13 -14 -14 -14 -14 -15 -15 -15 -15 -16 -17 -18 -18 -19 -20 -21 -22 -22 -23 -23 -24 -24 -25 -25 -25
-14 -14 -13 -14 -14 -13 -14 -14 -14 -14 -13 -13 -14 -13 -13 -13 -13 -14 -13 -14 -14 -14 -14 -15 -15 -15 -16 -17 -17 -18 -19 -20 -20 -21 -22 -22 -23 -23 -24 -25 -25 -25 -25
-14 -14 -14 -14 -14 -14 -14 -14 -14 -14 -14 -14 -14 -15 -14 -15 -14 -14 -14 -14 -14 -14 -14 -16 -15 -16 -17 -17 -18 -19 -19 -20 -21 -21 -21 -22 -22 -23 -24 -24 -25 -25 -26
-14 -14 -14 -15 -15 -14 -14 -14 -14 -14 -15 -14 -14 -14 -14 -14 -14 -14 -14 -14 -14 -14 -14 -16 -16 -16 -16 -17 -18 -19 -20 -20 -21 -21 -21 -22 -22 -22 -23 -23 -24 -25 -25
-15 -15 -15 -15 -15 -15 -15 -14 -14 -14 -14 -15 -14 -14 -14 -14 -14 -15 -15 -15 -14 -14 -15 -16 -16 -16 -17 -18 -19 -20 -20 -21 -21 -21 -21 -22 -22 -22 -22 -23 -23 -23 -24
-15 -15 -15 -15 -15 -15 -15 -15 -15 -15 -15 -15 -14 -15 -14 -14 -14 -15 -15 -15 -14 -14 -16 -16 -16 -16 -17 -18 -19 -20 -20 -21 -21 -21 -21 -21 -21 -21 -22 -22 -22 -23 -23
-16 -15 -15 -15 -16 -15 -15 -15 -15 -15 -15 -15 -15 -14 -14 -14 -15 -15 -15 -15 -15 -17 -16 -16 -16 -17 -18 -18 -19 -20 -20 -21 -21 -21 -21 -21 -21 -21 -21 -22 -22 -22 -22
-16 -16 -15 -16 -16 -15 -15 -15 -15 -15 -15 -15 -15 -15 -15 -15 -15 -15 -15 -16 -16 -16 -16 -16 -17 -17 -18 -18 -19 -20 -21 -21 -21 -21 -21 -21 -21 -21 -21 -22 -22 -22 -22
-17 -17 -17 -16 -16 -16 -16 -16 -15 -15 -15 -15 -15 -15 -15 -15 -15 -15 -15 -17 -16 -16 -16 -17 -17 -17 -18 -19 -20 -20 -21 -21 -21 -21 -21 -21 -21 -21 -21 -21 -22 -22 -22
-18 -18 -17 -17 -16 -16 -17 -17 -16 -15 -15 -15 -15 -15 -16 -15 -15 -15 -16 -16 -16 -16 -17 -17 -17 -18 -19 -20 -20 -20 -21 -21 -21 -21 -21 -21 -21 -21 -21 -20 -21 -21 -21
-18 -18 -17 -17 -17 -17 -17 -17 -16 -16 -16 -15 -16 -16 -16 -16 -15 -16 -17 -16 -16 -17 -17 -17 -18 -18 -19 -20 -20 -20 -20 -21 -21 -21 -21 -21 -21 -20 -20 -20 -20 -21 -21
-19 -19 -18 -18 -18 -18 -17 -16 -16 -16 -16 -16 -16 -17 -16 -16 -16 -16 -16 -16 -17 -17 -17 -18 -18 -19 -19 -20 -20 -20 -20 -20 -20 -20 -20 -20 -21 -21 -21 -21 -20 -21 -21
-19 -19 -19 -19 -18 -18 -17 -17 -16 -16 -16 -15 -16 -16 -16 -16 -16 -17 -16 -16 -17 -17 -18 -18 -19 -19 -20 -20 -20 -20 -20 -20 -20 -20 -20 -20 -21 -21 -21 -21 -21 -21 -21
-19 -19 -19 -19 -18 -18 -17 -17 -16 -16 -16 -16 -16 -16 -16 -16 -17 -17 -17 -17 -17 -18 -18 -18 -19 -20 -20 -20 -20 -20 -20 -20 -20 -20 -20 -20 -20 -20 -21 -21 -21 -21 -21
-20 -19 -19 -19 -18 -18 -17 -17 -16 -16 -16 -16 -16 -16 -16 -17 -18 -17 -17 -17 -17 -18 -18 -19 -19 -20 -20 -20 -20 -20 -20 -20 -20 -20 -20 -20 -20 -20 -20 -20 -21 -21 -21
-20 -19 -19 -19 -18 -17 -17 -17 -16 -16 -16 -16 -16 -16 -16 -17 -18 -17 -17 -17 -18 -19 -19 -19 -20 -20 -20 -20 -20 -20 -20 -20 -20 -19 -19 -20 -20 -20 -19 -19 -20 -20 -20
-20 -20 -19 -19 -19 -18 -17 -17 -16 -16 -16 -16 -16 -16 -16 -18 -17 -17 -18 -18 -19 -19 -19 -20 -20 -20 -20 -20 -19 -20 -20 -20 -20 -19 -19 -19 -19 -19 -19 -19 -19 -19 -19
-20 -20 -19 -19 -18 -18 -17 -17 -17 -16 -16 -16 -16 -16 -19 -18 -18 -18 -17 -19 -19 -19 -19 -20 -20 -20 -19 -19 -19 -20 -20 -20 -20 -20 -19 -19 -19 -19 -19 -19 -19 -19 -19
-20 -20 -19 -19 -18 -17 -17 -17 -17 -17 -17 -16 -16 -19 -18 -18 -17 -17 -19 -19 -19 -19 -20 -20 -20 -19 -19 -19 -19 -19 -20 -20 -20 -19 -20 -20 -19 -19 -19 -19 -19 -19 -19
-19 -19 -19 -18 -18 -18 -18 -17 -17 -17 -16 -16 -19 -18 -18 -18 -18 -19 -19 -19 -19 -19 -20 -20 -19 -19 -19 -19 -19 -19 -19 -19 -19 -19 -19 -19 -19 -19 -19 -19 -19 -19 -19